Regional Weather Roundup
Issued by NWS

Home | Current Version | Previous Version | Text Only | Print | Product List | Glossary Off
Versions: 1 2 3 4 5 6 7 8 9 10 11 12 13 14 15 16 17 18 19 20 21 22 23 24 25 26 27 28 29 30 31 32 33 34 35 36 37 38 39 40 41 42 43 44 45 46 47 48 49 50

000
ASUS43 KIND 221309
RWRIN

WEATHER ROUNDUP FOR INDIANA
NATIONAL WEATHER SERVICE INDIANAPOLIS IN
900 AM EDT THU JUN 22 2017

NOTE: "FAIR" INDICATES FEW OR NO CLOUDS BELOW 12,000 FEET WITH NO
SIGNIFICANT WEATHER AND/OR OBSTRUCTIONS TO VISIBILITY.

* - STATION DOES NOT REPORT WEATHER SUCH AS PRECIPITATION OR FOG.

+ - STATION NOT QUALITY CONTROLLED BY THE NATIONAL WEATHER SERVICE.
    USE DATA WITH CAUTION...ESPECIALLY DEWPOINT AND RELATIVE
    HUMIDITY OBSERVATIONS.

INZ001>003-010>013-019-020-221400-
NORTHWEST INDIANA

CITY           SKY/WX    TMP DP  RH WIND       PRES   REMARKS
GARY /AIRPORT/ CLOUDY    77  68  73 SW9       29.90R
KNOX *+        CLOUDY    73  61  64 SW7       29.92S
LA PORTE +     CLOUDY    75  68  78 SW7       29.93R
MICHIGAN CITY+ CLOUDY    73  66  78 SW8       29.92R
MONTICELLO +   CLOUDY    73  69  85 S10       29.93S
RENSSELAER +   CLOUDY    77  68  73 S9G16     29.92R
VALPARAISO     CLOUDY    76  69  79 SW8       29.92R

$$

LMZ046-743>745-221400-
SOUTHERN LAKE MICHIGAN

STATION/POSITION TIME  TEMP    WIND        PRES    WAVE
                       AIR SEA DIR/SP/G            HT
                 (UTC) (F)     (DEG/KT/KT) (MB)    (FT)
BURNS HARBOR     1240   76     210/ 14/ 19 1012.9R
MICHIGAN CITY    1240   76     190/ 14/ 17   N/A
5NW MICH CITY    1250   73 68  210/ 10/ 12   N/A     2

$$

INZ004-005-014>016-021>024-221400-
NORTH CENTRAL INDIANA

CITY           SKY/WX    TMP DP  RH WIND       PRES   REMARKS
ELKHART        CLOUDY    75  66  73 SW8       29.92S
GOSHEN         CLOUDY    74  67  78 SW9       29.93S
LOGANSPORT +   LGT RAIN  72  68  88 SW6       29.96R
PERU/GRISSOM   CLOUDY    75  70  84 SW13      29.95R
ROCHESTER +    CLOUDY    77  70  78 SW5       29.95R
SOUTH BEND     CLOUDY    74  68  81 SW10      29.92S
WARSAW +       CLOUDY    73  64  73 SW3       29.94S

$$

INZ006>009-017-018-025>027-221400-
NORTHEAST INDIANA

CITY           SKY/WX    TMP DP  RH WIND       PRES   REMARKS
AUBURN +       CLOUDY    73  68  83 SW6       29.96S
FORT WAYNE     CLOUDY    75  67  76 SW8       29.97R
KENDALLVILLE + CLOUDY    73  68  84 SW9       29.95S

$$

INZ028-029-035-036-043>045-051>053-221400-
WEST CENTRAL INDIANA

CITY           SKY/WX    TMP DP  RH WIND       PRES   REMARKS
CRAWFORDSVL +  MOSUNNY  N/A N/A N/A S10       29.97S
GREENCASTLE +  MOSUNNY   73  68  83 S3        29.99S
LAFAYETTE      CLOUDY    74  69  85 SW9       29.94R
TERRE HAUTE    MOSUNNY   76  68  76 S12       29.96S

$$

INZ030>032-037>040-046>048-054>057-064-065-221400-
CENTRAL INDIANA

CITY           SKY/WX    TMP DP  RH WIND       PRES   REMARKS
CP ATTERBURY + PTSUNNY   75  68  78 SW3       30.00S
COLUMBUS       PTSUNNY   75  66  73 S10       30.00R
FRANKFORT +    PTSUNNY   78  71  78 SW12      29.98R
GREENWOOD *+   CLOUDY    74  67  76 SW10G16   30.00R
INDIANAPOLIS   PTSUNNY   75  68  78 SW10G21   29.98R
-EAGLE CREEK   MOSUNNY   76  68  76 S10G16    29.98R
KOKOMO +       CLOUDY    75  69  81 SW13      29.96S
MARION +       MOSUNNY   75  68  78 SW10      29.97R
MT COMFORT *+  MOSUNNY   75  68  78 SW12      30.00R
SHELBYVILLE    CLOUDY    76  68  76 SW10      29.99R
ZIONSVILLE +   MOSUNNY   75  68  79 SW15      29.99R

$$

INZ033-034-041-042-049-050-058-059-221400-
EAST CENTRAL INDIANA

CITY           SKY/WX    TMP DP  RH WIND       PRES   REMARKS
MUNCIE         MOSUNNY   77  68  73 SW13      29.97S
RICHMOND +     MOSUNNY   73  68  83 SW10      30.02R

$$

INZ060-061-067>069-081>083-085>088-221400-
SOUTHWEST INDIANA

CITY           SKY/WX    TMP DP  RH WIND       PRES   REMARKS
EVANSVILLE     CLOUDY    76  68  76 SE6       29.97S
HUNTINGBURG *+ CLOUDY    75  69  81 S8        29.99R
WASHINGTON +   CLOUDY    74  68  80 S9        29.96F

$$

INZ062-063-066-070>080-084-089>092-221400-
SOUTH CENTRAL AND SOUTHEAST INDIANA

CITY           SKY/WX    TMP DP  RH WIND       PRES   REMARKS
BEDFORD +      CLOUDY    73  66  78 S3        29.99S
BLOOMINGTON    PTSUNNY   76  67  73 SW8       29.99R
MADISON *+     MOSUNNY   77  68  73 S7        30.04S
NORTH VERNON + CLOUDY    73  68  83 S6        30.01S
SEYMOUR +      CLOUDY    77  70  78 S8        30.00S

$$





USA.gov is the U.S. government's official web portal to all federal, state and local government web resources and services.